Location: Nelson
(41.2830°S, 173.2830°E)
Time: 19:41:34
(UTC+12:00)

Cosmos 2278 Rocket - Pass Details

Date: 14 May 2021
Orbit: 841 x 845 km, 71.0° (Epoch: 19 June)

Event Time Altitude Azimuth Distance (km) Brightness Sun altitude
Rises 19:14:52 0° 209° (SSW) 3,439 5.7 -21.8°
Reaches altitude 10° 19:17:23 10° 213° (SSW) 2,496 5.0 -22.2°
Maximum altitude 19:22:56 53° 288° (WNW) 1,039 2.9 -23.3°
Drops below altitude 10° 19:28:25 10° 3° (N) 2,464 4.6 -24.3°
Sets 19:30:54 0° 8° (N) 3,390 5.3 -24.8°
